sat.trackr.live / text

‹ back to catalog

STARLINK-30863

NORAD 59027 · 2024-038E

PAYLOAD ACTIVE UNKNOWN

§ Identity

Operator
Country
US
Launch date
2024-02-25
Launch site
AFETR
Launch vehicle
Mass (kg)
RCS (m²)

Purposes: comms

External: N2YO · Heavens-Above · Gunter

§ Orbital elements

Epoch: 2026-05-25T04:43:30.476064Z

Period
94.27 min
Inclination
43.0027°
Eccentricity
0.0001702
Mean motion
15.27576455 rev/d
Perigee alt
481.9 km
Apogee alt
484.2 km
Semi-major
6,861.2 km
B*
3.8975e-5
RAAN
315.3930°
Arg perigee
269.5371°
Mean anomaly
90.5285°
Rev number
12,634

§ Raw data

STARLINK-308631 59027U 24038E   26145.19688051  .00000810  00000+0  38975-4 0  99902 59027  43.0027 315.3930 0001702 269.5371  90.5285 15.27576455126340

JSON: /api/v1/satellites/59027 · /tle

For live sub-satellite position, see the globe view (requires WebGL).

§ Visibility from observer

Set your observer location to see the next 7 days of passes ≥ 10°. The values pass through the URL so the page stays shareable.

No JS? Fill the form by hand. The geolocation button needs JavaScript.